TimeEST,TemperatureF,Dew PointF,Humidity,Sea Level PressureIn,VisibilityMPH,Wind Direction,Wind SpeedMPH,Gust SpeedMPH,PrecipitationIn,Events,Conditions,WindDirDegrees,DateUTC
12:53 AM,48.0,43.0,83,30.03,10.0,Calm,Calm,-,N/A,,Partly Cloudy,0,2013-02-06 05:53:00
2:53 AM,46.9,43.0,86,30.04,8.0,SSW,4.6,-,N/A,,Partly Cloudy,210,2013-02-06 07:53:00
3:53 AM,46.9,43.0,86,30.04,8.0,Calm,Calm,-,N/A,,Clear,0,2013-02-06 08:53:00
4:53 AM,45.0,43.0,93,30.06,7.0,Calm,Calm,-,N/A,,Mostly Cloudy,0,2013-02-06 09:53:00
5:53 AM,45.0,42.1,90,30.08,6.0,Calm,Calm,-,N/A,,Partly Cloudy,0,2013-02-06 10:53:00
6:53 AM,44.1,41.0,89,30.10,5.0,NNW,3.5,-,N/A,,Clear,330,2013-02-06 11:53:00
7:53 AM,46.0,44.1,93,30.12,3.0,Calm,Calm,-,N/A,,Clear,0,2013-02-06 12:53:00
8:53 AM,52.0,46.9,83,30.15,-9999.0,NNW,5.8,-,N/A,,Unknown,330,2013-02-06 13:53:00
9:53 AM,59.0,46.9,64,30.16,6.0,NNW,6.9,-,N/A,,Haze,330,2013-02-06 14:53:00
10:53 AM,63.0,45.0,52,30.17,10.0,Calm,Calm,-,N/A,,Clear,0,2013-02-06 15:53:00
11:53 AM,66.0,41.0,40,30.16,10.0,Calm,Calm,-,N/A,,Clear,0,2013-02-06 16:53:00
12:53 PM,68.0,37.0,32,30.13,10.0,NW,5.8,-,N/A,,Clear,320,2013-02-06 17:53:00
1:53 PM,70.0,37.0,30,30.11,10.0,NNW,3.5,-,N/A,,Clear,330,2013-02-06 18:53:00
2:53 PM,70.0,37.0,30,30.10,10.0,SSW,5.8,-,N/A,,Clear,210,2013-02-06 19:53:00
3:53 PM,71.1,35.1,27,30.10,10.0,Variable,3.5,-,N/A,,Clear,0,2013-02-06 20:53:00
4:53 PM,70.0,34.0,27,30.10,10.0,WNW,5.8,-,N/A,,Clear,300,2013-02-06 21:53:00
5:53 PM,64.9,37.9,37,30.12,10.0,Calm,Calm,-,N/A,,Clear,0,2013-02-06 22:53:00
6:53 PM,57.9,39.9,51,30.12,8.0,Calm,Calm,-,N/A,,Clear,0,2013-02-06 23:53:00
7:53 PM,54.0,39.9,59,30.14,10.0,Calm,Calm,-,N/A,,Clear,0,2013-02-07 00:53:00
8:53 PM,48.0,39.9,74,30.15,10.0,Calm,Calm,-,N/A,,Clear,0,2013-02-07 01:53:00
9:53 PM,50.0,41.0,71,30.19,10.0,Calm,Calm,-,N/A,,Clear,0,2013-02-07 02:53:00
10:53 PM,45.0,39.0,80,30.18,10.0,Calm,Calm,-,N/A,,Clear,0,2013-02-07 03:53:00
11:53 PM,45.0,39.0,80,30.17,10.0,Calm,Calm,-,N/A,,Clear,0,2013-02-07 04:53:00